GFSMW_prec_cloud_003.txt.gz
Cloud_Cover
7 53 29 91 21 5 5 8 5 89 55 35 36 28 31 80 79 99 91 63 100 100 49 5 5 5 4 0 0 0 0 0 0 2 5 5 5 5 5 6 49 79 96
90 99 99 100 89 5 2 5 27 38 88 14 5 5 41 63 94 91 100 92 28 5 5 5 29 13 0 0 0 5 4 2 4 2 0 4 5 5 5 6 19 48 15
36 82 93 60 5 30 20 30 3 2 7 1 36 49 27 68 85 69 5 5 5 5 2 0 0 2 0 4 5 5 5 5 5 5 4 1 4 5 4 1 3 4 2
78 5 5 5 88 93 8 1 0 0 1 5 5 14 89 100 37 5 3 0 0 0 0 5 4 5 6 39 32 7 5 5 4 2 5 5 12 6 24 5 4 0 3
59 96 100 100 64 19 5 1 0 2 3 6 93 100 94 14 2 0 1 5 3 4 5 43 46 96 99 45 93 14 0 0 5 4 7 6 5 37 88 85 20 5 1
36 52 100 91 100 83 40 0 1 5 18 20 5 3 0 2 3 5 10 29 96 79 72 99 86 75 62 53 39 21 0 0 1 2 10 20 30 93 94 85 80 89 38
81 100 100 5 22 3 5 5 88 49 5 4 3 10 37 80 98 100 84 99 64 70 95 53 8 4 3 4 3 5 24 92 8 13 68 98 92 0 6 5 69 100 13
94 85 12 0 0 3 5 2 5 5 59 9 5 5 6 31 42 88 63 81 87 10 5 5 5 38 77 99 100 100 77 36 79 0 0 0 94 0 0 5 62 5 5
0 0 0 2 0 5 5 0 4 5 5 5 5 5 8 50 91 94 25 0 0 3 7 98 95 100 100 96 100 98 100 38 25 10 3 0 0 0 0 0 1 20 53
3 5 5 5 5 5 5 5 7 40 5 4 4 5 5 5 5 4 0 1 4 100 93 13 82 100 87 100 100 100 99 26 100 100 94 8 2 4 2 5 5 4 10
71 37 36 63 40 91 96 89 81 60 5 5 9 16 8 2 3 3 1 0 6 99 79 82 72 93 100 100 100 100 100 100 100 66 10 5 5 5 5 5 3 1 5
95 92 89 100 100 100 100 100 76 60 25 5 2 0 5 4 3 0 0 1 97 98 76 100 82 100 100 89 100 100 100 100 98 14 5 6 5 5 5 5 0 0 0
5 20 100 100 100 82 99 100 100 22 5 5 5 5 1 2 0 0 0 0 16 34 77 79 50 13 99 100 100 100 100 96 6 5 5 5 1 0 0 0 4 17 21
7 71 83 100 86 100 100 70 5 5 5 5 5 3 2 0 0 0 0 3 4 35 5 5 5 40 81 100 100 68 1 5 5 5 0 2 5 5 2 4 26 67 100
27 76 85 69 100 100 51 11 5 5 5 5 4 4 5 5 3 0 1 5 94 36 5 24 14 87 72 24 4 3 4 5 4 5 5 14 8 5 5 26 49 58 100
100 100 100 100 73 5 5 5 5 5 5 5 5 5 5 5 0 0 5 93 100 84 5 5 82 99 5 5 5 3 5 5 66 100 75 78 12 5 15 46 99 99 100
100 100 99 10 5 5 5 5 5 5 9 12 19 5 7 5 1 1 5 66 97 100 30 87 5 41 77 87 5 5 57 99 96 96 100 89 18 9 44 58 100 100 100
90 75 6 5 5 5 5 5 32 97 100 47 52 55 5 4 0 3 5 5 67 99 29 5 70 95 100 5 5 33 5 6 28 30 7 5 69 66 100 97 100 100 100
16 31 5 5 5 6 14 66 89 60 72 57 10 1 0 0 0 4 15 36 7 5 5 95 100 100 16 5 6 5 27 6 5 5 5 93 100 94 100 100 100 100 100
100 21 5 5 5 6 7 82 76 66 96 5 0 5 1 0 2 5 5 93 100 98 83 100 93 20 5 5 5 26 74 5 28 5 5 60 100 100 100 100 100 100 100
37 30 5 5 6 66 96 65 83 83 7 4 5 5 5 1 3 5 40 95 96 65 38 96 18 5 2 5 5 63 11 41 90 76 56 71 100 100 100 100 100 100 100
82 5 5 42 85 75 39 66 36 6 1 5 5 5 5 5 4 5 5 5 5 52 59 16 10 5 5 5 5 5 89 100 77 98 70 100 100 100 100 100 100 100 100
20 67 100 91 45 8 13 5 6 2 4 5 5 28 100 66 5 4 3 1 5 5 96 95 6 5 5 5 5 5 8 5 58 12 98 91 98 92 100 100 100 100 100
73 93 65 30 30 21 20 6 5 5 5 20 91 86 100 74 66 5 5 5 80 100 100 81 5 24 5 5 5 66 5 5 8 5 87 68 99 100 100 100 100 100 100
99 93 100 35 9 60 16 5 5 7 49 100 96 85 76 100 61 68 13 5 5 28 49 5 5 32 17 5 33 77 12 5 12 5 83 98 82 100 99 100 100 100 100
100 97 98 65 48 64 51 14 80 80 87 62 67 93 100 100 91 100 5 18 5 5 5 5 5 15 5 5 17 28 10 5 4 5 65 100 100 100 100 100 100 100 99

GFSMW_prec_cloud_006.txt.gz
Cloud_Cover
3 4 4 40 66 15 87 100 100 100 95 80 88 100 98 100 92 69 24 5 15 5 23 38 26 5 4 0 0 0 0 0 0 0 0 0 0 0 1 0 1 1 4
53 48 48 12 5 4 8 70 48 2 20 39 20 57 50 20 5 5 5 27 28 68 84 7 2 0 0 0 1 2 5 5 0 0 4 0 0 0 0 0 4 0 0
17 6 47 52 5 5 5 5 5 4 0 5 1 4 0 1 5 5 5 5 19 7 2 0 0 3 5 5 5 5 5 15 5 5 1 6 1 1 0 0 0 0 0
6 92 76 12 60 5 5 23 89 89 22 5 5 0 0 1 0 0 0 0 0 0 0 3 5 5 23 28 29 5 1 0 13 1 0 3 43 78 5 5 4 0 0
48 54 100 89 94 98 98 46 12 5 5 0 0 0 0 0 0 0 0 0 4 5 5 5 5 5 5 4 8 5 5 1 4 3 0 2 5 5 35 20 5 10 5
1 5 34 46 100 97 100 15 3 5 4 1 0 0 2 1 1 3 1 5 5 5 1 5 5 25 16 5 32 87 16 0 2 5 5 4 3 0 6 5 5 5 3
0 14 100 78 35 6 5 4 4 2 0 0 5 5 5 4 5 5 5 5 2 4 44 68 12 5 5 32 46 85 100 89 40 34 3 56 6 5 5 15 18 4 3
63 68 25 0 5 4 0 5 5 5 6 5 5 0 0 2 3 1 4 6 55 37 5 2 5 5 5 13 79 100 100 86 32 89 69 69 6 5 4 5 2 3 2
4 0 5 5 1 5 5 5 6 49 8 5 5 5 5 5 5 5 24 16 5 5 5 4 5 80 5 96 96 83 62 74 93 96 48 29 59 82 5 5 5 29 4
3 5 5 4 5 5 5 5 31 71 38 82 87 70 41 5 5 5 5 5 4 0 5 22 84 68 96 99 96 17 100 81 14 17 74 85 100 98 53 5 5 5 48
5 9 5 7 18 10 40 87 93 82 100 100 33 5 1 0 5 5 5 4 0 0 16 88 72 32 27 6 4 5 5 5 18 10 5 20 24 5 5 5 1 1 1
53 6 5 74 82 100 100 61 80 100 100 72 5 0 4 5 5 5 5 2 4 5 86 28 79 5 4 5 5 3 19 5 5 5 0 0 5 5 0 0 5 0 0
5 5 52 100 100 99 72 100 100 93 78 5 0 4 5 5 5 5 2 5 5 6 79 100 45 5 14 5 5 5 0 0 0 0 1 5 4 5 5 5 5 4 15
5 5 70 100 100 24 99 99 62 5 5 5 2 5 5 5 5 5 5 5 3 64 93 97 16 10 24 6 8 5 0 0 0 2 5 5 52 74 81 55 57 41 14
5 55 100 99 26 99 91 36 15 5 5 5 5 5 5 5 5 5 5 5 5 7 99 4 5 4 22 100 44 5 0 0 4 5 5 60 80 99 100 100 99 100 99
57 100 100 100 100 12 65 11 5 5 5 5 6 6 10 6 17 35 5 5 99 99 36 5 5 94 100 68 5 5 5 5 5 73 89 9 7 6 99 59 100 100 100
100 100 100 94 5 6 5 5 5 5 20 67 65 39 36 95 73 19 3 5 32 37 54 88 100 100 50 5 53 24 5 5 6 5 5 5 41 20 8 5 56 99 98
100 83 14 26 24 55 50 11 31 68 100 98 82 6 84 100 44 1 0 5 5 5 5 6 8 17 9 36 5 5 5 5 5 5 5 5 37 20 99 93 100 100 100
90 34 86 100 100 100 98 92 97 100 100 100 46 51 68 65 4 0 2 5 18 99 99 99 97 100 17 5 5 5 5 5 5 8 5 83 96 72 100 100 100 100 100
86 92 100 100 100 100 99 100 100 100 100 100 98 90 47 5 5 4 5 8 94 89 71 18 5 5 5 2 3 5 5 26 8 8 22 28 100 100 100 100 89 100 100
100 100 100 100 100 82 100 100 100 100 100 100 93 17 5 5 30 6 5 5 5 5 5 39 5 24 5 0 3 5 5 17 80 52 40 39 95 100 100 100 92 100 100
100 100 100 100 94 100 100 100 100 100 100 75 8 5 5 5 51 19 5 5 5 5 5 30 61 68 5 0 3 5 60 15 62 11 18 52 99 99 95 100 100 100 100
100 100 100 100 100 100 100 100 100 100 100 6 5 5 5 6 88 7 5 18 5 5 75 50 15 87 5 5 3 5 5 2 50 9 6 10 47 100 83 100 100 100 100
100 100 100 100 100 100 100 100 96 87 9 5 5 6 5 10 98 100 100 98 76 43 7 64 91 10 5 5 5 5 5 5 5 5 5 8 25 90 99 72 100 100 100
100 100 100 100 100 100 100 77 72 47 14 10 38 7 18 73 72 86 100 88 30 5 5 46 20 37 41 5 5 60 8 5 5 5 28 44 28 92 91 69 100 100 100
100 100 100 100 100 100 100 60 63 34 62 100 100 100 99 100 98 98 100 82 5 5 5 5 5 41 5 5 5 44 5 5 4 5 75 89 72 37 97 99 90 100 100

GFSMW_prec_cloud_009.txt.gz
Cloud_Cover
99 51 16 38 100 100 100 100 56 52 99 71 78 99 68 72 71 14 0 0 4 5 5 5 5 1 0 0 0 0 4 5 5 3 0 0 0 0 0 0 0 2 1
63 70 100 97 28 70 94 63 15 2 12 10 0 0 0 0 0 0 0 1 4 4 0 0 0 0 0 2 3 0 0 1 4 4 0 2 4 5 1 2 0 0 0
5 22 10 24 22 4 2 0 2 5 5 3 3 0 0 0 0 0 0 0 0 0 0 0 5 5 5 1 0 0 0 0 0 0 0 0 0 5 2 0 5 3 2
2 0 5 5 58 37 5 81 15 5 2 5 2 0 0 0 0 0 0 0 0 0 0 4 5 5 0 0 0 0 0 0 0 3 4 3 5 5 0 3 4 5 0
1 4 5 6 5 76 81 5 4 46 1 0 0 0 0 0 0 0 4 4 3 5 5 5 7 5 5 0 0 0 0 21 11 78 100 99 90 76 11 0 0 0 0
5 5 5 5 32 62 2 0 3 3 5 4 4 3 0 2 4 5 5 0 0 0 0 0 0 0 2 4 56 5 26 6 12 86 66 36 73 99 84 42 3 0 0
5 5 72 31 25 0 1 0 5 5 5 5 5 5 5 5 21 7 1 0 0 0 0 2 5 8 5 6 89 100 48 5 19 4 3 2 4 1 5 15 26 3 2
5 9 89 38 0 4 5 5 5 5 5 5 13 5 5 44 68 5 1 2 4 5 5 6 28 42 22 7 99 86 5 5 33 2 1 1 1 18 81 16 22 37 4
5 27 6 0 0 0 5 5 5 5 6 61 33 61 73 67 45 5 5 5 5 6 53 87 13 8 99 46 85 82 0 0 0 5 5 0 0 1 3 5 5 41 67
5 2 1 4 1 5 5 5 5 47 21 65 94 94 96 74 2 5 5 6 59 58 12 5 10 100 70 17 2 0 2 0 3 1 0 0 0 2 5 5 55 38 30
0 5 5 5 5 5 11 5 76 100 48 86 100 78 12 5 5 20 31 7 47 5 5 9 97 76 8 92 3 5 5 0 0 0 0 0 1 5 5 39 6 5 20
5 5 5 44 74 66 20 86 93 12 84 99 100 22 6 21 58 32 5 5 0 5 5 33 100 99 99 89 48 71 5 3 0 0 0 4 5 5 77 81 37 98 100
5 5 52 98 90 71 100 99 82 100 100 80 6 49 39 7 5 5 5 5 2 5 5 21 79 100 86 96 97 67 10 5 5 0 5 5 9 48 77 98 100 100 100
11 34 98 100 100 100 84 100 100 83 6 5 5 5 5 5 5 5 5 30 47 29 25 10 100 100 97 75 11 43 5 5 5 5 5 5 71 73 93 100 100 100 100
100 95 73 100 44 86 81 8 5 5 5 10 5 5 5 48 17 46 98 100 84 55 5 100 80 39 99 64 95 85 5 5 9 5 5 5 75 75 87 100 100 100 100
75 49 98 74 96 28 33 5 5 5 27 37 26 34 52 70 100 100 100 99 92 5 36 5 87 100 100 100 98 14 60 34 0 0 1 5 5 48 100 100 97 99 100
5 29 89 100 100 64 25 64 5 46 85 85 96 100 100 100 100 100 100 87 7 5 5 5 5 17 20 20 97 60 3 0 0 2 5 6 41 76 100 100 98 100 99
54 66 100 100 97 68 94 78 93 83 100 100 100 100 100 100 100 87 38 2 0 2 5 5 5 5 5 55 4 3 0 0 5 5 15 86 100 100 100 100 100 100 100
94 100 100 100 100 92 93 100 96 100 100 100 100 100 100 100 86 10 0 0 4 5 5 5 5 5 5 5 5 0 4 5 5 9 90 100 100 100 100 100 100 100 100
100 100 100 100 99 100 100 100 100 100 100 100 100 100 100 69 5 5 5 5 3 4 5 5 5 5 5 5 5 2 5 5 7 5 18 100 100 100 99 100 100 100 100
100 100 100 100 100 100 100 100 100 100 100 99 100 96 20 68 5 4 5 5 5 5 5 5 5 5 5 5 3 5 11 48 43 5 5 66 100 87 85 94 100 100 100
100 100 100 100 100 100 100 100 98 100 100 85 68 39 100 54 4 5 5 5 5 5 5 5 5 27 5 5 0 5 5 5 29 5 5 38 13 13 74 94 100 99 99
100 100 100 100 100 100 94 95 100 100 100 99 96 100 67 5 5 5 38 74 82 60 5 5 33 78 46 5 5 4 5 5 5 5 5 5 5 5 82 88 100 100 99
100 100 100 100 100 100 95 81 99 100 100 100 86 67 67 12 5 5 10 68 78 54 5 5 5 5 5 5 5 5 5 8 8 5 3 3 5 5 5 35 56 57 100
100 100 100 100 100 100 100 100 100 100 100 95 85 97 100 100 85 53 85 85 63 56 5 5 5 5 5 5 5 5 82 88 48 5 5 4 5 5 5 29 55 71 90
100 100 100 100 100 100 100 100 100 100 98 100 6 90 100 100 100 96 78 61 83 20 5 5 5 5 5 5 5 5 45 5 5 5 5 5 5 5 5 5 36 80 100

GFSMW_prec_cloud_012.txt.gz
Cloud_Cover
100 100 83 63 36 10 49 91 97 56 39 62 51 71 72 43 45 9 0 3 1 0 0 0 0 0 0 0 0 0 1 0 2 0 0 0 4 38 84 84 49 29 15
6 21 21 15 21 31 63 74 42 22 5 5 0 0 1 0 0 0 0 0 0 3 0 0 0 0 0 3 3 5 5 5 5 12 5 20 24 4 37 73 5 49 80
5 25 46 52 50 69 39 47 44 5 5 18 12 4 3 0 0 1 3 5 0 0 0 0 0 1 4 4 0 1 5 5 5 28 9 6 0 4 3 16 27 18 15
5 18 26 8 5 5 7 5 6 34 10 2 0 0 0 4 5 5 39 5 5 4 0 0 0 0 0 0 1 1 1 4 5 5 5 6 5 5 5 16 91 5 2
2 1 5 7 5 51 5 23 46 1 0 0 0 0 4 5 6 7 5 5 5 5 4 0 0 0 0 0 0 0 2 12 13 5 5 5 5 15 82 63 54 31 5
0 5 5 5 5 5 5 1 0 0 1 5 5 4 5 22 37 24 5 13 5 5 0 0 0 0 0 2 5 5 5 48 100 92 5 11 30 25 96 98 66 5 0
5 5 5 5 5 5 4 0 2 2 5 5 5 20 16 16 77 54 37 25 4 0 0 0 2 21 47 30 67 92 72 42 45 83 37 65 98 100 100 100 85 20 4
2 3 5 5 5 5 0 0 3 5 5 5 7 99 82 78 96 87 81 4 3 5 5 63 59 7 64 92 37 100 100 88 82 77 86 100 100 100 100 100 100 70 5
5 3 5 5 5 1 0 0 5 8 6 6 73 100 65 24 84 95 16 5 15 73 34 5 5 88 100 100 100 100 90 95 53 96 100 100 100 100 100 100 100 100 82
5 5 5 5 4 5 11 36 70 99 100 100 100 12 5 77 89 12 24 40 7 5 5 5 49 100 56 100 100 100 100 96 96 100 100 100 98 100 100 100 100 100 100
5 5 5 5 5 5 66 100 100 100 73 100 86 29 92 67 5 5 5 5 5 5 29 6 22 26 91 100 87 95 100 100 100 100 100 100 100 100 100 100 100 100 100
5 5 5 26 39 89 100 100 100 100 99 100 98 14 5 5 5 5 5 5 11 73 13 5 30 69 86 100 94 87 100 100 100 100 100 100 100 100 100 100 100 100 100
5 5 35 98 100 100 100 100 84 99 100 34 5 5 5 15 5 5 11 6 63 47 5 5 76 90 97 98 100 100 100 88 98 42 77 96 82 31 23 78 99 100 100
6 35 71 27 34 98 84 41 87 97 7 5 5 74 91 11 5 5 5 26 97 30 10 42 39 90 71 57 63 84 62 89 89 88 80 65 7 5 27 16 91 100 100
98 88 6 5 8 94 97 100 94 60 97 58 95 99 25 5 16 35 72 100 72 18 81 23 16 8 22 80 99 93 100 100 89 50 4 2 4 4 37 65 95 100 100
100 80 97 93 14 93 100 100 100 100 100 100 100 72 9 56 56 100 100 95 42 6 96 94 78 77 84 5 53 52 93 96 5 0 0 0 5 38 7 89 92 54 100
44 54 60 33 88 100 100 100 100 100 100 100 82 37 63 92 100 100 71 66 23 56 87 88 73 57 70 5 5 8 2 4 0 0 1 3 10 95 100 100 99 100 100
89 100 93 100 99 94 100 95 100 100 100 96 87 87 100 100 100 94 20 58 32 66 96 97 31 16 5 5 3 0 2 0 0 0 5 5 41 100 84 100 100 100 100
87 100 100 97 65 98 77 100 100 100 90 100 100 100 100 100 89 55 21 95 66 65 100 24 5 5 5 5 5 5 5 5 5 5 5 5 13 62 80 100 100 100 100
100 100 96 54 100 86 100 100 100 100 100 100 100 100 100 98 100 100 100 5 68 55 5 3 5 5 5 5 5 5 5 39 5 8 5 5 20 54 90 93 100 100 100
92 48 84 84 88 100 100 100 100 100 100 100 100 100 100 100 100 100 54 12 86 18 5 5 5 5 4 5 5 5 5 5 5 5 5 5 8 46 34 15 92 85 100
27 32 78 100 100 100 100 100 100 100 100 99 100 100 100 100 100 100 61 85 92 6 5 39 5 31 21 5 5 3 5 4 22 47 71 22 4 5 5 5 9 59 67
84 87 94 100 87 87 100 100 100 100 100 100 100 100 100 100 100 99 86 99 99 15 16 16 82 98 100 99 34 1 1 7 7 56 10 5 5 5 0 1 5 16 90
100 100 85 100 100 100 100 100 100 100 100 100 100 100 100 100 100 72 84 99 97 93 82 94 99 100 100 100 100 100 100 100 98 99 68 11 5 5 6 18 8 5 8
96 100 100 100 100 100 100 100 100 100 100 100 100 100 100 90 100 100 89 100 86 76 99 100 98 66 86 100 64 41 89 94 79 6 99 100 100 38 51 54 35 27 5
100 100 100 100 100 100 100 100 100 100 100 100 100 100 100 100 100 100 100 92 6 7 5 5 5 5 5 5 5 5 5 5 5 79 100 100 100 100 90 86 91 99 9